Location: *
(6.0000°S, 32.3997°W)
Time: 13:50:54
(UTC+00:00)

Okean 1-7 Rocket - Pass Details

Date: 01 April 2020
Orbit: 617 x 648 km, 82.5° (Epoch: 04 June)

Event Time Altitude Azimuth Distance (km) Brightness Sun altitude
Rises 21:48:56 0° 348° (NNW) 2,873 7.2 -24.3°
Reaches altitude 10° 21:51:10 10° 344° (NNW) 1,974 6.3 -24.8°
Maximum altitude 21:55:27 55° 266° (W) 748 4.2 -25.9°
Drops below altitude 10° 21:59:47 10° 188° (S) 2,002 6.2 -27.0°
Enters shadow 22:00:59 - 185° (S) 2,481 6.7 -27.3°
